GW6323 Weather Reports


time (UTC)temp
F
wind
direction
speed
knots
gust
knots
rain 1hr
in
rain 24hr
in
rain mn
in
humidity
%
barometer
mb
20260510150056 80 176 0.9 2.6 0.00 0.40 0.00 73 1017.1
20260510145533 80 251 0.9 2.6 0.00 0.41 0.00 75 1017.0
20260510145030 80 0 0.0 2.6 0.00 0.41 0.00 76 1017.0
20260510144609 79 268 0.0 2.6 0.00 0.41 0.00 77 1017.0
20260510144030 79 0 0.9 2.6 0.00 0.41 0.00 77 1017.0
20260510143535 79 254 0.0 1.7 0.00 0.41 0.00 79 1017.0
20260510143042 78 0 0.0 1.7 0.00 0.41 0.00 81 1017.0
20260510142533 78 0 0.0 1.7 0.00 0.41 0.00 81 1017.1
20260510142033 78 260 0.0 1.7 0.00 0.41 0.00 82 1017.0
20260510141543 77 0 0.0 2.6 0.00 0.41 0.00 83 1017.1
20260510141033 77 248 0.0 3.5 0.00 0.41 0.00 83 1017.0
20260510140533 76 0 0.0 3.5 0.00 0.41 0.00 85 1016.9
20260510140043 76 254 0.0 2.6 0.00 0.41 0.00 86 1016.8
20260510135533 76 254 0.9 2.6 0.00 0.41 0.00 86 1016.7
20260510135033 75 0 0.0 2.6 0.00 0.41 0.00 86 1016.7
20260510134549 75 261 0.0 2.6 0.00 0.41 0.00 86 1016.7
20260510134030 75 277 0.0 2.6 0.00 0.41 0.00 87 1016.8
20260510133530 75 0 0.0 2.6 0.00 0.41 0.00 87 1016.7
20260510133048 75 0 0.0 2.6 0.00 0.41 0.00 87 1016.6
20260510132534 75 261 0.0 2.6 0.00 0.41 0.00 87 1016.6
20260510132031 75 261 0.0 2.6 0.00 0.41 0.00 87 1016.5
20260510131544 74 0 0.0 2.6 0.00 0.41 0.00 87 1016.4
20260510131034 74 261 0.0 1.7 0.00 0.41 0.00 87 1016.3
20260510130536 74 0 0.0 2.6 0.00 0.41 0.00 87 1016.3
20260510130045 74 261 0.0 2.6 0.00 0.41 0.00 87 1016.2
20260510125533 74 271 0.0 0.9 0.00 0.41 0.00 87 1016.1
20260510125033 74 0 0.0 1.7 0.00 0.41 0.00 87 1016.1
20260510124541 73 0 0.0 1.7 0.00 0.41 0.00 87 1016.0
20260510124033 73 0 0.0 0.0 0.00 0.41 0.00 87 1015.9
20260510123533 73 0 0.0 0.0 0.00 0.41 0.00 87 1015.8
20260510123044 73 0 0.0 0.9 0.00 0.41 0.00 87 1015.9
20260510122532 73 0 0.0 0.9 0.00 0.41 0.00 87 1015.8
20260510122034 72 0 0.0 0.9 0.00 0.41 0.00 87 1015.9
20260510121541 72 0 0.0 0.0 0.00 0.41 0.00 87 1015.8
20260510121033 72 0 0.0 0.0 0.00 0.41 0.00 87 1015.8
20260510120536 72 0 0.0 0.0 0.00 0.41 0.00 87 1015.6
20260510120036 71 0 0.0 0.0 0.00 0.41 0.00 87 1015.6
20260510115532 71 0 0.0 0.0 0.00 0.41 0.00 87 1015.5
20260510115034 71 0 0.0 0.0 0.00 0.41 0.00 87 1015.5
20260510114600 70 0 0.0 0.0 0.00 0.41 0.00 86 1015.4
20260510114032 70 0 0.0 0.0 0.00 0.41 0.00 86 1015.4
20260510113532 70 0 0.0 0.0 0.00 0.41 0.00 87 1015.3
20260510113053 70 0 0.0 0.0 0.00 0.41 0.00 87 1015.2
20260510112533 70 0 0.0 0.0 0.00 0.41 0.00 87 1015.2
20260510112033 70 0 0.0 0.0 0.00 0.41 0.00 87 1015.1
20260510111545 70 0 0.0 0.0 0.00 0.41 0.00 87 1015.1
20260510111032 70 0 0.0 0.0 0.00 0.41 0.00 86 1015.1
20260510110532 70 0 0.0 0.0 0.00 0.41 0.00 86 1015.0
20260510110040 70 0 0.0 0.0 0.00 0.41 0.00 86 1014.9
20260510105536 70 0 0.0 0.0 0.00 0.41 0.00 86 1015.0
20260510105032 70 0 0.0 0.0 0.00 0.41 0.00 86 1014.9
20260510104553 70 0 0.0 0.0 0.00 0.41 0.00 86 1014.7
20260510104032 70 0 0.0 0.0 0.00 0.41 0.00 86 1014.8
20260510103534 70 0 0.0 0.0 0.00 0.41 0.00 86 1014.8
20260510103046 70 0 0.0 0.0 0.00 0.41 0.00 86 1014.7
20260510102532 70 0 0.0 0.0 0.00 0.41 0.00 86 1014.6
20260510102032 70 0 0.0 0.0 0.00 0.41 0.00 86 1014.5
20260510101543 70 0 0.0 0.0 0.00 0.41 0.00 86 1014.4
20260510101036 70 0 0.0 0.0 0.00 0.41 0.00 86 1014.5
20260510100532 70 0 0.0 0.0 0.00 0.41 0.00 86 1014.4
20260510100057 70 0 0.0 0.0 0.00 0.41 0.00 86 1014.3
20260510095534 70 0 0.0 0.0 0.00 0.41 0.00 86 1014.3
20260510095032 70 0 0.0 0.0 0.00 0.41 0.00 86 1014.3
20260510094550 70 0 0.0 0.0 0.00 0.41 0.00 86 1014.3
20260510094034 70 0 0.0 0.0 0.00 0.41 0.00 86 1014.3
20260510093533 70 0 0.0 0.0 0.00 0.41 0.00 86 1014.2
20260510093043 70 0 0.0 0.0 0.00 0.41 0.00 86 1014.1
20260510092533 70 0 0.0 0.0 0.00 0.41 0.00 86 1014.1
20260510092032 70 0 0.0 0.0 0.00 0.41 0.00 86 1013.9
20260510091544 70 0 0.0 0.0 0.00 0.41 0.00 86 1013.8
20260510091032 70 0 0.0 0.0 0.00 0.41 0.00 86 1013.8
20260510090536 71 0 0.0 0.0 0.00 0.41 0.00 86 1013.8
20260510090043 71 0 0.0 0.0 0.00 0.41 0.00 86 1013.9
20260510085533 71 0 0.0 0.0 0.00 0.41 0.00 86 1013.8
20260510085032 71 0 0.0 0.0 0.00 0.41 0.00 86 1013.8
20260510084542 71 0 0.0 0.0 0.00 0.41 0.00 86 1013.8
20260510084032 71 0 0.0 0.0 0.00 0.41 0.00 86 1013.8
20260510083532 71 0 0.0 0.0 0.00 0.41 0.00 86 1013.6
20260510083047 71 0 0.0 0.0 0.00 0.41 0.00 86 1013.6
20260510082533 71 0 0.0 0.0 0.00 0.41 0.00 86 1013.6
20260510082032 71 0 0.0 0.0 0.00 0.41 0.00 86 1013.6
20260510081543 71 0 0.0 0.0 0.00 0.41 0.00 86 1013.6
20260510081034 71 0 0.0 0.0 0.00 0.41 0.00 86 1013.6
20260510080534 71 0 0.0 0.0 0.00 0.41 0.00 86 1013.6
20260510080041 71 0 0.0 0.0 0.00 0.41 0.00 86 1013.5
20260510075535 71 0 0.0 0.0 0.00 0.41 0.00 86 1013.4
20260510075031 71 0 0.0 0.0 0.00 0.41 0.00 86 1013.2
20260510074546 71 0 0.0 0.0 0.00 0.41 0.00 86 1013.3
20260510074034 71 0 0.0 0.0 0.00 0.41 0.00 86 1013.2
20260510073530 71 0 0.0 0.0 0.00 0.41 0.00 86 1013.2
20260510073046 71 0 0.0 0.0 0.00 0.41 0.00 86 1013.3
20260510072532 72 0 0.0 0.0 0.00 0.41 0.00 86 1013.3
20260510072032 72 0 0.0 0.0 0.00 0.41 0.00 86 1013.3
20260510071548 72 0 0.0 0.0 0.00 0.41 0.00 86 1013.3
20260510071033 72 0 0.0 0.0 0.00 0.41 0.00 86 1013.4
20260510070531 72 0 0.0 0.0 0.00 0.41 0.00 86 1013.3
20260510070103 72 0 0.0 0.0 0.00 0.41 0.00 86 1013.4
20260510065531 72 0 0.0 0.0 0.00 0.41 0.00 86 1013.5
20260510065032 72 0 0.0 0.0 0.00 0.41 0.00 86 1013.4
20260510064549 72 0 0.0 0.0 0.00 0.41 0.00 86 1013.5
20260510064036 72 0 0.0 0.0 0.00 0.41 0.00 86 1013.8
20260510063534 72 0 0.0 0.0 0.00 0.41 0.00 86 1013.8
20260510063045 72 0 0.0 0.0 0.00 0.41 0.00 86 1013.8
20260510062531 71 0 0.0 0.0 0.00 0.41 0.00 86 1013.9
20260510062031 71 0 0.0 0.0 0.00 0.41 0.00 86 1013.9
20260510061543 71 0 0.0 0.0 0.00 0.41 0.00 86 1014.1
20260510061031 71 0 0.0 0.0 0.00 0.41 0.00 86 1014.0
20260510060534 71 0 0.0 0.0 0.00 0.41 0.00 86 1014.2
20260510060044 71 0 0.0 0.0 0.00 0.41 0.00 86 1014.2
20260510055531 71 0 0.0 0.0 0.00 0.41 0.00 86 1014.3
20260510055035 71 0 0.0 0.0 0.00 0.41 0.00 86 1014.4
20260510054551 71 0 0.0 0.0 0.00 0.41 0.00 86 1014.5
20260510054030 71 0 0.0 0.0 0.00 0.41 0.00 86 1014.5
20260510053534 71 0 0.0 0.0 0.00 0.41 0.00 86 1014.6
20260510053047 71 0 0.0 0.0 0.00 0.41 0.00 86 1014.7
20260510052533 72 0 0.0 0.0 0.00 0.41 0.00 86 1014.7
20260510052032 72 0 0.0 0.0 0.00 0.41 0.00 86 1014.8
20260510051543 72 0 0.0 0.0 0.00 0.41 0.00 86 1014.9
20260510051035 71 0 0.0 0.0 0.00 0.41 0.00 86 1014.9
20260510050531 71 0 0.0 0.0 0.00 0.41 0.00 86 1015.0
20260510050041 71 0 0.0 0.0 0.00 0.41 0.00 86 1015.0
20260510045536 71 0 0.0 0.0 0.00 0.41 0.00 86 1015.1
20260510045031 71 0 0.0 0.0 0.00 0.41 0.00 86 1015.1
20260510044544 71 0 0.0 0.0 0.00 0.41 0.00 86 1015.2
20260510044031 71 0 0.0 0.0 0.00 0.41 0.00 86 1015.1
20260510043531 71 0 0.0 0.0 0.00 0.41 0.00 86 1015.0
20260510043043 71 0 0.0 0.0 0.00 0.41 0.00 86 1015.1
20260510042534 71 0 0.0 0.0 0.00 0.41 0.00 86 1015.2
20260510042036 71 0 0.0 0.0 0.00 0.41 0.00 86 1015.2
20260510041549 71 0 0.0 0.0 0.00 0.41 0.00 86 1015.2
20260510041035 71 0 0.0 0.0 0.00 0.41 0.00 86 1015.1
20260510040535 71 0 0.0 0.0 0.00 0.41 0.00 86 1015.1
20260510040042 71 0 0.0 0.0 0.00 0.41 0.00 86 1015.1
20260510035531 71 0 0.0 0.0 0.00 0.41 0.41 86 1015.2
20260510035032 72 0 0.0 0.0 0.00 0.41 0.41 86 1015.2
20260510034540 72 0 0.0 0.0 0.00 0.41 0.41 86 1015.1
20260510034032 72 0 0.0 0.0 0.00 0.41 0.41 86 1015.2
20260510033530 72 0 0.0 0.0 0.00 0.41 0.41 86 1015.3
20260510033054 72 0 0.0 0.0 0.00 0.41 0.41 86 1015.2
20260510032530 72 0 0.0 0.0 0.00 0.41 0.41 86 1015.2
20260510032033 72 0 0.0 0.0 0.00 0.41 0.41 86 1015.2
20260510031543 72 0 0.0 0.0 0.00 0.41 0.41 86 1015.2
20260510031031 72 0 0.0 0.0 0.00 0.41 0.41 86 1015.2
20260510030531 72 0 0.0 0.0 0.00 0.41 0.41 86 1015.2
20260510030043 72 0 0.0 0.0 0.00 0.41 0.41 86 1015.0
20260510025532 72 0 0.0 0.0 0.00 0.41 0.41 86 1015.0
20260510025030 72 0 0.0 0.9 0.00 0.41 0.41 86 1015.0
20260510024543 72 0 0.0 0.9 0.00 0.41 0.41 86 1015.0
20260510024034 72 0 0.0 0.9 0.00 0.41 0.41 86 1014.8
20260510023534 72 0 0.0 0.0 0.00 0.41 0.41 86 1014.5
20260510023044 72 0 0.0 1.7 0.00 0.41 0.41 85 1014.6
20260510022531 72 0 0.0 1.7 0.00 0.41 0.41 85 1015.0
20260510022033 72 0 0.0 1.7 0.00 0.41 0.41 85 1015.0
20260510021543 72 0 0.0 0.0 0.00 0.41 0.41 85 1014.5
20260510021030 72 0 0.0 0.0 0.00 0.41 0.41 85 1014.4
20260510020530 72 0 0.0 0.0 0.00 0.41 0.41 85 1014.6
20260510020043 72 0 0.0 0.0 0.00 0.41 0.41 85 1014.6
20260510015530 72 0 0.0 0.0 0.00 0.41 0.41 85 1014.3
20260510015034 72 0 0.0 0.0 0.00 0.41 0.41 85 1014.3
20260510014541 72 0 0.0 0.0 0.00 0.41 0.41 85 1014.4
20260510014030 72 0 0.0 0.0 0.00 0.41 0.41 85 1014.3
20260510013530 72 0 0.0 0.0 0.00 0.41 0.41 85 1014.2
20260510013041 72 0 0.0 0.0 0.00 0.41 0.41 85 1014.2
20260510012530 72 0 0.0 0.0 0.00 0.41 0.41 85 1014.1
20260510012033 72 0 0.0 0.0 0.00 0.41 0.41 85 1014.0
20260510011543 72 0 0.0 0.0 0.00 0.41 0.41 85 1013.8
20260510011031 72 0 0.0 0.0 0.00 0.41 0.41 85 1014.0
20260510010532 72 0 0.0 0.0 0.00 0.41 0.41 85 1013.8
20260510010054 72 0 0.0 0.0 0.00 0.41 0.41 85 1013.6
20260510005531 72 0 0.0 0.0 0.00 0.42 0.41 85 1013.7
20260510005037 72 0 0.0 0.0 0.00 0.42 0.41 85 1014.1
20260510004544 72 0 0.0 0.0 0.00 0.42 0.41 85 1014.0
20260510004033 72 0 0.0 0.0 0.00 0.42 0.41 85 1014.2
20260510003531 72 0 0.0 0.0 0.00 0.42 0.41 85 1014.2
20260510003054 72 0 0.0 0.0 0.00 0.42 0.41 85 1014.2
20260510002533 72 0 0.0 0.0 0.00 0.42 0.41 85 1014.0
20260510002031 72 0 0.0 0.0 0.00 0.42 0.41 85 1013.9
20260510001546 72 0 0.0 0.0 0.00 0.42 0.41 85 1014.0
20260510001034 72 0 0.0 0.0 0.00 0.42 0.41 85 1013.9
20260510000530 72 0 0.0 0.0 0.00 0.42 0.41 84 1013.8
20260510000051 72 0 0.0 0.0 0.00 0.42 0.41 84 1013.7
20260509235533 72 0 0.0 0.0 0.00 0.47 0.41 84 1013.7
20260509235032 73 0 0.0 0.9 0.00 0.47 0.41 84 1013.7
20260509234558 73 0 0.0 1.7 0.00 0.47 0.41 84 1013.7
20260509234033 73 0 0.0 1.7 0.00 0.47 0.41 84 1013.7
20260509233533 73 0 0.0 1.7 0.00 0.47 0.41 84 1013.7
20260509233039 74 0 0.0 1.7 0.00 0.47 0.41 85 1013.7
20260509232532 74 0 0.0 1.7 0.00 0.47 0.41 85 1013.6
20260509232031 74 0 0.0 1.7 0.00 0.47 0.41 85 1013.6
20260509231545 74 0 0.0 0.0 0.00 0.47 0.41 85 1013.4
20260509231033 74 0 0.0 0.0 0.00 0.47 0.41 85 1013.4
20260509230530 74 0 0.0 0.0 0.00 0.47 0.41 85 1013.5
20260509230044 74 0 0.0 0.0 0.00 0.47 0.41 85 1013.3
20260509225530 74 0 0.0 0.0 0.00 0.48 0.41 84 1013.3
20260509225030 74 0 0.0 0.0 0.00 0.48 0.41 85 1013.3
20260509224541 75 0 0.0 0.0 0.00 0.48 0.41 85 1013.3
20260509224031 75 0 0.0 0.0 0.00 0.48 0.41 85 1013.4
20260509223532 75 0 0.0 0.0 0.00 0.48 0.41 85 1013.4
20260509223052 75 0 0.0 0.0 0.00 0.48 0.41 85 1013.6
20260509222531 75 0 0.0 0.0 0.00 0.48 0.41 85 1013.6
20260509222035 75 0 0.0 0.0 0.00 0.48 0.41 85 1013.6
20260509221536 75 0 0.0 0.0 0.00 0.48 0.41 85 1013.5
20260509221131 75 0 0.0 0.0 0.00 0.48 0.41 84 1013.3
20260509220535 75 0 0.0 0.0 0.00 0.48 0.41 84 1013.4
20260509220056 75 0 0.0 0.9 0.00 0.48 0.41 84 1013.4
20260509215532 75 0 0.0 0.9 0.03 0.49 0.41 84 1013.3
20260509215034 75 0 0.0 0.9 0.08 0.49 0.41 84 1013.3
20260509214543 75 0 0.0 0.9 0.19 0.49 0.41 84 1013.2
20260509214033 75 0 0.0 1.7 0.23 0.49 0.41 84 1013.1
20260509213532 75 0 0.0 1.7 0.25 0.49 0.41 84 1013.1
20260509213041 75 0 0.0 0.0 0.27 0.49 0.41 84 1013.4
20260509212534 75 0 0.0 0.0 0.29 0.49 0.41 83 1013.3
20260509212033 75 0 0.0 0.9 0.30 0.49 0.41 83 1013.4
20260509211546 75 0 0.0 0.9 0.30 0.49 0.41 84 1013.4
20260509211033 75 0 0.0 0.9 0.31 0.49 0.41 83 1013.4
20260509210533 75 0 0.0 0.9 0.32 0.49 0.41 83 1013.5
20260509210046 76 0 0.0 0.9 0.34 0.49 0.41 83 1013.4
20260509205531 76 0 0.0 0.9 0.33 0.45 0.37 83 1013.4
20260509205030 76 0 0.0 0.9 0.30 0.40 0.32 83 1013.4
20260509204558 76 0 0.0 0.9 0.21 0.30 0.22 82 1013.6
20260509204031 76 0 0.0 0.0 0.16 0.25 0.17 82 1013.3
20260509203535 77 0 0.0 0.0 0.15 0.24 0.16 81 1013.1
20260509203039 77 0 0.0 0.0 0.13 0.22 0.14 81 1013.0
20260509202534 77 0 0.0 0.0 0.11 0.20 0.12 80 1013.2
20260509202029 77 0 0.0 0.0 0.10 0.19 0.11 79 1013.1
20260509201548 77 0 0.0 0.0 0.10 0.19 0.11 78 1013.2
20260509201037 78 0 0.0 0.0 0.09 0.18 0.10 78 1013.4
20260509200534 78 0 0.0 0.0 0.07 0.16 0.08 77 1013.4
20260509200045 79 0 0.0 0.0 0.06 0.15 0.07 77 1013.6
20260509195534 79 0 0.0 0.0 0.03 0.12 0.04 75 1013.5
20260509195030 79 0 0.0 0.0 0.01 0.10 0.02 75 1013.4
20260509194545 79 0 0.0 0.0 0.00 0.09 0.01 74 1013.2
20260509194031 80 0 0.0 0.0 0.00 0.09 0.01 73 1013.2
20260509193532 80 0 0.0 0.0 0.00 0.09 0.01 74 1013.0
20260509193045 80 0 0.0 0.0 0.00 0.09 0.01 74 1012.9
20260509192534 80 0 0.0 0.0 0.00 0.09 0.01 73 1013.0
20260509192033 80 0 0.0 0.0 0.00 0.09 0.01 73 1013.0
20260509191554 80 0 0.0 0.0 0.00 0.09 0.01 73 1013.0
20260509191035 80 0 0.0 0.9 0.00 0.09 0.01 68 1012.9
20260509190532 80 0 0.0 1.7 0.00 0.09 0.01 70 1012.9
20260509190039 80 0 0.0 1.7 0.00 0.09 0.01 69 1013.0
20260509185534 80 0 0.0 1.7 0.00 0.09 0.01 68 1012.9
20260509185037 80 0 0.0 0.9 0.00 0.09 0.01 68 1013.0
20260509184538 80 0 0.0 0.9 0.00 0.09 0.01 68 1013.1
20260509184031 80 0 0.0 1.7 0.00 0.09 0.01 68 1013.2
20260509183534 80 0 0.0 1.7 0.00 0.09 0.01 69 1013.1
20260509183043 80 0 0.0 1.7 0.00 0.09 0.01 69 1013.3
20260509182532 81 0 0.0 0.0 0.00 0.09 0.01 70 1013.4
20260509182031 81 0 0.0 1.7 0.00 0.09 0.01 69 1013.4
20260509181543 81 0 0.0 1.7 0.00 0.09 0.01 69 1013.4
20260509181035 81 0 0.0 0.0 0.00 0.09 0.01 69 1013.5
20260509180537 81 0 0.0 2.6 0.00 0.09 0.01 69 1013.4
20260509180043 81 0 0.0 2.6 0.00 0.09 0.01 69 1013.6
20260509175531 81 0 0.0 1.7 0.00 0.09 0.01 70 1013.7
20260509175037 81 0 0.0 0.9 0.00 0.09 0.01 70 1013.7
20260509174552 81 0 0.0 0.0 0.00 0.09 0.01 70 1013.8
20260509174032 81 0 0.0 2.6 0.00 0.09 0.01 68 1013.7
20260509173533 81 0 0.0 2.6 0.00 0.09 0.01 69 1013.6
20260509173038 81 0 0.0 2.6 0.00 0.09 0.01 69 1013.7
20260509172533 81 0 0.0 2.6 0.00 0.09 0.01 68 1013.7
20260509172034 81 0 0.0 2.6 0.00 0.09 0.01 70 1013.8
20260509171549 80 259 0.0 2.6 0.00 0.09 0.01 70 1013.8
20260509171033 80 244 0.0 0.9 0.00 0.09 0.01 70 1013.9
20260509170532 80 268 0.0 0.9 0.00 0.09 0.01 70 1013.8
20260509170045 80 0 0.0 0.9 0.00 0.09 0.01 71 1013.9
20260509165533 80 0 0.0 0.9 0.00 0.09 0.01 71 1013.8
20260509165033 80 0 0.0 0.9 0.00 0.09 0.01 71 1013.8
20260509164545 80 0 0.0 0.0 0.00 0.09 0.01 72 1013.9
20260509164031 80 0 0.0 0.0 0.00 0.09 0.01 71 1013.8
20260509163531 80 0 0.0 0.0 0.00 0.09 0.01 71 1013.8
20260509163040 80 0 0.0 0.0 0.00 0.09 0.01 72 1013.8
20260509162530 80 0 0.0 0.9 0.00 0.09 0.01 72 1013.8
20260509162039 80 0 0.0 0.9 0.00 0.09 0.01 72 1014.0
20260509161543 79 0 0.0 2.6 0.00 0.09 0.01 72 1014.1
20260509161033 79 0 0.0 2.6 0.00 0.09 0.01 72 1014.0
20260509160534 79 247 0.0 1.7 0.00 0.09 0.01 72 1014.2
20260509160044 79 0 0.0 2.6 0.00 0.09 0.01 74 1014.2
20260509155533 79 0 0.0 2.6 0.00 0.09 0.01 73 1014.2
20260509155035 79 0 0.0 2.6 0.00 0.09 0.01 74 1014.2
20260509154552 79 0 0.0 0.9 0.00 0.09 0.01 75 1014.2
20260509154032 79 0 0.0 0.9 0.00 0.09 0.01 75 1014.1
20260509153533 79 0 0.0 0.0 0.00 0.09 0.01 77 1014.1
20260509153041 78 0 0.0 0.9 0.00 0.09 0.01 77 1014.1
20260509152533 78 0 0.0 0.9 0.01 0.09 0.01 77 1013.9
20260509152032 78 0 0.0 0.9 0.01 0.09 0.01 76 1014.0
20260509151544 78 0 0.0 1.7 0.01 0.09 0.01 78 1014.1
20260509151031 78 0 0.0 1.7 0.01 0.09 0.01 78 1014.1
20260509150534 77 259 0.0 1.7 0.01 0.09 0.01 79 1014.0